Brookings, OR

1:43 PM PDT on April 26, 2017 (GMT -0700)
Brookings State

Weather History for KBOK - March, 2014

Change the Weather History Date:

Saturday, March 22, 2014

  Actual Average Record
Temperature  
Mean Temperature 50 °F -  
Max Temperature 61 °F 58 °F 69 °F (1970)
Min Temperature 39 °F 41 °F 32 °F (1933)
Degree Days  
Heating Degree Days 15    
Moisture  
Dew Point 35 °F    
Average Humidity 58    
Maximum Humidity 86    
Minimum Humidity 35    
Precipitation  
Precipitation 0.00 in - - ()
Sea Level Pressure  
Sea Level Pressure 30.13 in    
Wind  
Wind Speed 3 mph (South)    
Max Wind Speed 6 mph    
Max Gust Speed -    
Visibility 8 miles    
Events      
Averages and records for this station are not official NWS values.
T = Trace of Precipitation, MM = Missing Value Source: NWS Daily Summary

Daily Weather History Graph

Daily Weather History Graph

Search for Another Location

Airport or City:

Trip Planner

Search our weather history database for the weather conditions in past years. The results will help you decide how hot, cold, wet, or windy it might be!

Date:

Astronomy

Mar. 22, 2014 Rise Set
Actual Time 7:16 AM PDT 7:31 PM PDT
Civil Twilight 6:48 AM PDT 7:59 PM PDT
Nautical Twilight 6:16 AM PDT 8:32 PM PDT
Astronomical Twilight 5:42 AM PDT 9:06 PM PDT
Moon 1:01 AM PDT (3/22) 11:00 AM PDT (3/22)
Length of Visible Light 13h 10m
Length of Day
12h 14m
Waning Gibbous, 64% of the Moon is Illuminated
Mar 22
Waning Gibbous
Mar 23
Last Quarter
Mar 30
New
Apr 7
First Quarter
Apr 15
Full

Hourly Weather History & Observations

Time (PDT) Temp. Windchill Dew Point Humidity Pressure Visibility Wind Dir Wind Speed Gust Speed Precip Events Conditions
12:56 AM 48.9 °F - 22.1 °F 35% 30.12 in 10.0 mi Variable 4.6 mph - N/A   Clear
1:56 AM 45.9 °F 43.6 °F 25.2 °F 44% 30.12 in 9.0 mi WSW 4.6 mph - N/A   Clear
2:56 AM 45.0 °F 43.5 °F 26.1 °F 48% 30.11 in 10.0 mi Variable 3.5 mph - N/A   Clear
3:56 AM 41.9 °F - 28.0 °F 58% 30.12 in 10.0 mi Calm Calm - N/A   Clear
4:56 AM 41.9 °F - 30.0 °F 63% 30.12 in 10.0 mi Calm Calm - N/A   Clear
5:56 AM 41.0 °F - 30.0 °F 65% 30.13 in 10.0 mi Calm Calm - N/A   Clear
6:56 AM 39.9 °F - 32.0 °F 73% 30.14 in 10.0 mi Calm Calm - N/A   Clear
7:56 AM 39.9 °F - 32.0 °F 73% 30.15 in 8.0 mi Calm Calm - N/A   Clear
8:56 AM 43.9 °F - 34.9 °F 71% 30.14 in 8.0 mi Calm Calm - N/A   Clear
9:56 AM 50.9 °F - 34.9 °F 54% 30.15 in 7.0 mi WNW 4.6 mph - N/A   Clear
10:56 AM 54.9 °F - 34.9 °F 47% 30.15 in 8.0 mi West 5.8 mph - N/A   Clear
11:56 AM 56.8 °F - 34.0 °F 42% 30.15 in 7.0 mi Calm Calm - N/A   Clear
12:56 PM 57.9 °F - 34.9 °F 42% 30.15 in 9.0 mi Variable 3.5 mph - N/A   Clear
1:56 PM 57.9 °F - 34.9 °F 42% 30.14 in 7.0 mi Variable 3.5 mph - N/A   Clear
2:56 PM 61.0 °F - 36.0 °F 39% 30.12 in 8.0 mi Variable 4.6 mph - N/A   Clear
3:56 PM 61.0 °F - 34.9 °F 38% 30.11 in 8.0 mi SSE 4.6 mph - N/A   Clear
4:56 PM 59.9 °F - 34.0 °F 38% 30.10 in 8.0 mi SSE 5.8 mph - N/A   Clear
5:56 PM 59.9 °F - 38.8 °F 46% 30.09 in 7.0 mi South 4.6 mph - N/A   Clear
6:56 PM 55.9 °F - 41.9 °F 59% 30.09 in 6.0 mi SSE 4.6 mph - N/A   Haze
7:56 PM 52.0 °F - 43.9 °F 74% 30.10 in 7.0 mi Calm Calm - N/A   Clear
8:56 PM 50.0 °F - 43.0 °F 77% 30.13 in 6.0 mi ESE 3.5 mph - N/A   Haze
9:56 PM 47.8 °F - 43.0 °F 83% 30.14 in 6.0 mi Calm Calm - N/A   Haze
10:56 PM 45.9 °F - 41.0 °F 83% 30.15 in 7.0 mi Calm Calm - N/A   Clear
11:56 PM 45.0 °F - 41.0 °F 86% 30.17 in 7.0 mi Calm Calm - N/A   Clear